Location: Newark
(35.2672°N, 80.7344°W)
Time: 15:30:59
(UTC+00:00)

Tiros 1 - Pass Details

Date: 24 January 2020
Orbit: 631 x 664 km, 48.4° (Epoch: 24 February)

Event Time Altitude Azimuth Distance (km) Brightness Sun altitude
Rises 22:10:16 0° 309° (NW) 2,967 10.9 5.1°
Reaches altitude 10° 22:13:11 10° 326° (NNW) 2,062 9.9 4.6°
Maximum altitude 22:16:40 20° 13° (NNE) 1,526 8.8 4.0°
Drops below altitude 10° 22:20:09 10° 60° (ENE) 2,073 9.1 3.3°
Sets 22:23:05 0° 78° (ENE) 2,987 9.9 2.8°
